Flag for U.S.A. Weather past 2 weeks in Portland, Oregon, U.S.A.

Now
35 °F

Clear.


Feels Like: 35 °F
Forecast: 29 / 57 °F
Wind: No wind

Location: Portland International Airport

Current Time: Mar 4, 2015 at 3:28:13 AM

Latest Report: Mar 4, 2015 at 2:53 AM


Visibility: 10 mi

Pressure: 30.25 "Hg

Humidity: 82%

Dew point: 30 °F

Location of PortlandLocation

Historic Weather in Portland — Graph

°F

Portland temperature yesterday

Maximum temperature yesterday: 55 °F (at 2:53 PM)
Minimum temperature yesterday: 33 °F (at 5:53 AM)
Average temperature yesterday: 44 °F

Past Weeks' High & Low Weather Summary

 TemperatureHumidityPressure
High62 °F (Feb 17, 1:53 PM)100% (Feb 19, 7:53 PM)30.46 "Hg (Feb 19, 7:53 PM)
Low31 °F (Mar 1, 4:53 AM)17% (Feb 22, 10:53 AM)29.70 "Hg (Feb 27, 1:53 PM)
Average48 °F67%30.20 "Hg
* Reported Feb 17 1:53 AM — Mar 4 1:53 AM, Portland, Weather by CustomWeather, © 2015

Note: Actual official high and low records may vary slightly from our data, if they occured in-between our weather recording intervals... More about our weather records

Advertising

Portland weather history for previous 24 hours

 ConditionsComfort  
Time TempWeatherWind HumidityBarometerVisibility
1:53 AM
Wed, Mar 4
35 °FClear.No wind82%30.26 "Hg10 mi
12:53 AM39 °FClear.No wind73%30.24 "Hg10 mi
11:53 PM
Tue, Mar 3
38 °FClear.No wind76%30.23 "Hg10 mi
10:53 PM42 °FPassing clouds.5 mph68%30.22 "Hg10 mi
9:53 PM42 °FPassing clouds.5 mph68%30.22 "Hg10 mi
8:53 PM43 °FPassing clouds.5 mph62%30.20 "Hg10 mi
7:53 PM44 °FPassing clouds.6 mph58%30.19 "Hg10 mi
6:53 PM50 °FPassing clouds.5 mph43%30.18 "Hg10 mi
5:53 PM53 °FPartly sunny.6 mph37%30.17 "Hg10 mi
4:53 PM53 °FScattered clouds.7 mph39%30.18 "Hg10 mi
3:53 PM55 °FScattered clouds.8 mph37%30.18 "Hg10 mi
2:53 PM55 °FPassing clouds.9 mph33%30.19 "Hg10 mi
1:53 PM54 °FPassing clouds.8 mph34%30.20 "Hg10 mi
12:53 PM53 °FPassing clouds.5 mph39%30.22 "Hg10 mi
11:53 AM50 °FPassing clouds.7 mph48%30.24 "Hg10 mi
10:53 AM47 °FPassing clouds.8 mph54%30.24 "Hg10 mi
9:53 AM44 °FPassing clouds.3 mph65%30.24 "Hg10 mi
8:53 AM41 °FPassing clouds.5 mph76%30.24 "Hg10 mi
7:53 AM36 °FPassing clouds.3 mph89%30.23 "Hg10 mi
6:53 AM33 °FPassing clouds.No wind92%30.22 "Hg10 mi
5:53 AM33 °FPassing clouds.No wind88%30.22 "Hg10 mi
4:53 AM34 °FClear.No wind97%30.20 "Hg10 mi
3:53 AM34 °FClear.No wind92%30.19 "Hg10 mi
Weather by CustomWeather, © 2015

See weather overviewHow to use our weather pages